Terminal Aerodrome Forecast
Issued by NWS State College, PA

Current Version | Previous Version | Text Only | Print | Product List | Glossary On
Versions: 1 2 3 4 5 6 7 8 9 10 11 12 13 14 15 16 17 18 19 20 21 22 23 24 25 26 27 28 29 30 31 32 33 34 35 36 37 38 39 40 41 42 43 44 45 46 47 48 49 50
000
FTUS41 KCTP 012349
TAFIPT
TAF
KIPT 012349Z 0200/0224 08009KT 1SM -SN BR OVC012
     FM020200 10006KT 2SM -SN BR BKN012 OVC025
     FM020400 10006KT 3/4SM -SN BR OVC009
     FM020800 10006KT 2SM -FZRASN BR OVC012
     FM021300 12006KT 3SM -FZRASN BR OVC008
     FM021600 26015G25KT 6SM -SN OVC018=

USA.gov is the U.S. government's official web portal to all federal, state and local government web resources and services.